Location: Creston
(40.9870°N, 81.8938°W)
Time: 07:32:06
(UTC+00:00)

Cosmos 1408 - Pass Details

Date: 29 October 2020
Orbit: 470 x 492 km, 82.6° (Epoch: 28 November)

Event Time Altitude Azimuth Distance (km) Brightness Sun altitude
Rises 22:56:57 0° 11° (N) 2,558 6.0 -6.4°
Reaches altitude 10° 22:59:47 10° 35° (NE) 1,677 4.9 -6.9°
Maximum altitude 23:02:00 15° 73° (ENE) 1,382 4.2 -7.3°
Drops below altitude 10° 23:04:13 10° 110° (ESE) 1,676 4.8 -7.7°
Sets 23:07:02 0° 134° (SE) 2,555 5.9 -8.2°
